FW4683 Weather Reports


Display with metric or nautical units.
time (UTC)temp
F
wind
direction
speed
MPH
gust
MPH
rain 1hr
in
rain 24hr
in
rain mn
in
humidity
%
barometer
mb
20260506135006 64 96 2.0 4.0 0.00 0.00 0.00 76 1012.8
20260506134503 64 96 0.0 7.0 0.00 0.00 0.00 76 1013.0
20260506134002 64 96 1.0 9.0 0.00 0.00 0.00 77 1012.9
20260506133502 64 96 3.0 10.0 0.00 0.00 0.00 76 1012.7
20260506133002 64 96 6.0 12.0 0.00 0.00 0.00 77 1012.7
20260506132002 64 96 3.0 11.0 0.00 0.00 0.00 77 1012.3
20260506131503 64 96 5.0 11.0 0.00 0.00 0.00 76 1012.2
20260506131005 63 96 3.0 11.0 0.00 0.00 0.00 76 1012.3
20260506130503 63 96 4.0 11.0 0.00 0.00 0.00 76 1012.3
20260506130005 63 96 6.0 13.0 0.00 0.00 0.00 76 1012.3
20260506125501 64 96 6.0 13.0 0.00 0.00 0.00 76 1012.1
20260506125002 64 96 5.0 13.0 0.00 0.00 0.00 76 1012.2
20260506124501 63 96 8.0 12.0 0.00 0.00 0.00 76 1012.3
20260506124002 63 96 6.0 13.0 0.00 0.00 0.00 76 1012.2
20260506123502 63 96 7.0 13.0 0.00 0.00 0.00 75 1012.1
20260506123001 63 96 6.0 13.0 0.00 0.00 0.00 75 1012.3
20260506122100 63 96 9.0 14.0 0.00 0.00 0.00 76 1012.3
20260506121600 63 96 6.0 14.0 0.00 0.00 0.00 76 1012.3
20260506121100 63 96 6.0 14.0 0.00 0.00 0.00 76 1012.2
20260506120558 63 96 6.0 14.0 0.00 0.00 0.00 76 1012.3
20260506120058 63 96 3.0 11.0 0.00 0.00 0.00 76 1012.3
20260506115557 63 96 5.0 11.0 0.00 0.00 0.00 76 1012.4
20260506115057 63 96 0.0 7.0 0.00 0.00 0.00 76 1012.6
20260506114557 62 96 1.0 4.0 0.00 0.00 0.00 77 1012.5
20260506114057 62 96 0.0 1.0 0.00 0.00 0.00 78 1012.8
20260506113557 62 96 0.0 4.0 0.00 0.00 0.00 78 1012.8
20260506113057 62 96 0.0 4.0 0.00 0.00 0.00 78 1012.7
20260506112700 62 96 1.0 6.0 0.00 0.00 0.00 77 1012.6
20260506112057 62 96 1.0 6.0 0.00 0.00 0.00 77 1012.6
20260506111557 62 96 1.0 8.0 0.00 0.00 0.00 78 1012.5
20260506111057 62 96 5.0 8.0 0.00 0.00 0.00 77 1012.3
20260506110559 62 96 4.0 8.0 0.00 0.00 0.00 77 1012.3
20260506110057 62 96 5.0 8.0 0.00 0.00 0.00 77 1012.2
20260506105557 62 96 0.0 7.0 0.00 0.00 0.00 77 1012.3
20260506105059 62 96 1.0 7.0 0.00 0.00 0.00 77 1012.4
20260506104559 62 96 3.0 8.0 0.00 0.00 0.00 77 1012.4
20260506104056 62 96 4.0 11.0 0.00 0.00 0.00 77 1012.2
20260506103556 62 96 7.0 11.0 0.00 0.00 0.00 77 1012.1
20260506103101 62 96 5.0 10.0 0.00 0.00 0.00 77 1011.9
20260506102656 62 96 4.0 13.0 0.00 0.00 0.00 77 1011.8
20260506102057 62 96 6.0 13.0 0.00 0.00 0.00 77 1011.8
20260506101555 62 96 3.0 9.0 0.00 0.00 0.00 77 1011.9
20260506101055 62 96 5.0 8.0 0.00 0.00 0.00 77 1011.8
20260506100555 62 96 0.0 4.0 0.00 0.00 0.00 77 1011.7
20260506100055 62 96 1.0 7.0 0.00 0.00 0.00 77 1011.7
20260506095555 62 96 1.0 7.0 0.00 0.00 0.00 77 1011.6
20260506095059 62 96 2.0 6.0 0.00 0.00 0.00 77 1011.7
20260506094604 62 96 0.0 3.0 0.00 0.00 0.00 77 1011.9
20260506094054 62 96 1.0 6.0 0.00 0.00 0.00 77 1011.7
20260506093553 62 96 2.0 6.0 0.00 0.00 0.00 77 1011.8
20260506093053 62 96 2.0 4.0 0.00 0.00 0.00 77 1011.9
20260506092653 62 96 2.0 8.0 0.00 0.00 0.00 77 1011.9
20260506092054 62 96 4.0 8.0 0.00 0.00 0.00 77 1011.9
20260506091557 62 96 1.0 8.0 0.00 0.00 0.00 77 1011.9
20260506091052 62 96 3.0 9.0 0.00 0.00 0.00 76 1011.9
20260506090551 62 96 4.0 8.0 0.00 0.00 0.00 76 1012.0
20260506090055 62 96 2.0 12.0 0.00 0.00 0.00 76 1012.0
20260506085551 62 96 7.0 13.0 0.00 0.00 0.00 76 1011.9
20260506085051 62 96 8.0 13.0 0.00 0.00 0.00 76 1012.0
20260506084607 62 96 4.0 11.0 0.00 0.00 0.00 76 1012.0
20260506084050 62 96 6.0 14.0 0.00 0.00 0.00 76 1012.0
20260506083550 62 96 7.0 14.0 0.00 0.00 0.00 76 1012.1
20260506083050 62 96 5.0 14.0 0.00 0.00 0.00 76 1012.0
20260506082650 62 96 3.0 12.0 0.00 0.00 0.00 75 1012.2
20260506082050 62 96 4.0 0.0 0.00 0.00 0.00 75 1012.0
20260506081550 62 96 6.0 12.0 0.00 0.00 0.00 75 1012.2
20260506081050 62 96 0.0 9.0 0.00 0.00 0.00 75 1012.1
20260506080549 62 96 4.0 13.0 0.00 0.00 0.00 74 1012.1
20260506073055 62 96 5.0 9.0 0.00 0.00 0.00 72 1012.4
20260506072647 62 96 6.0 12.0 0.00 0.00 0.00 72 1012.2
20260506072045 62 96 8.0 12.0 0.00 0.00 0.00 72 1012.2
20260506071546 62 96 5.0 9.0 0.00 0.00 0.00 71 1012.3
20260506071044 62 96 6.0 15.0 0.00 0.00 0.00 71 1012.2
20260506070547 62 96 7.0 15.0 0.00 0.00 0.00 71 1012.3
20260506062042 64 96 4.0 13.0 0.00 0.00 0.00 66 1012.4
20260506061554 64 96 6.0 13.0 0.00 0.00 0.00 65 1012.4
20260506061042 64 96 8.0 14.0 0.00 0.00 0.00 65 1012.4
20260506060543 65 96 8.0 14.0 0.00 0.00 0.00 64 1012.5
20260506051033 62 96 0.0 1.0 0.00 0.00 0.00 70 1012.9
20260506050534 61 96 0.0 1.0 0.00 0.00 0.00 70 1012.9
20260506045031 61 96 0.0 4.0 0.00 0.00 0.00 71 1012.9
20260506044544 61 96 0.0 0.0 0.00 0.00 0.00 71 1012.8
20260506044033 61 96 0.0 4.0 0.00 0.00 0.00 71 1012.8
20260506043532 61 96 1.0 4.0 0.00 0.00 0.00 70 1013.0
20260506043039 61 96 0.0 2.0 0.00 0.00 0.00 69 1013.2
20260506042632 62 96 1.0 3.0 0.00 0.00 0.00 67 1013.0
20260506042032 62 96 0.0 1.0 0.00 0.00 0.00 67 1013.0
20260506041534 63 96 0.0 1.0 0.00 0.00 0.00 67 1012.9
20260506041031 63 96 0.0 1.0 0.00 0.00 0.00 66 1012.8
20260506040531 63 96 0.0 0.0 0.00 0.00 0.00 65 1013.0
20260506040031 63 96 0.0 0.0 0.00 0.00 0.00 64 1013.0
20260506035532 64 96 0.0 0.0 0.00 0.00 0.00 64 1013.0
20260506035031 64 96 0.0 1.0 0.00 0.00 0.00 63 1013.0
20260506034532 64 96 0.0 1.0 0.00 0.00 0.00 63 1013.0
20260506034030 64 96 0.0 3.0 0.00 0.00 0.00 63 1012.9
20260506033530 64 96 1.0 4.0 0.00 0.00 0.00 62 1013.0
20260506033030 64 96 2.0 4.0 0.00 0.00 0.00 62 1013.1
20260506032630 65 96 0.0 0.0 0.00 0.00 0.00 61 1013.1
20260506032033 65 96 0.0 0.0 0.00 0.00 0.00 61 1013.3
20260506031544 65 96 0.0 0.0 0.00 0.00 0.00 61 1013.2
20260506031032 65 96 0.0 0.0 0.00 0.00 0.00 61 1013.3
20260506030532 64 96 0.0 0.0 0.00 0.00 0.00 62 1013.3
20260506030032 65 96 0.0 0.0 0.00 0.00 0.00 62 1013.3
20260506025533 65 96 0.0 0.0 0.00 0.00 0.00 62 1013.2
20260506025032 65 96 0.0 0.0 0.00 0.00 0.00 62 1013.2
20260506024541 65 96 0.0 0.0 0.00 0.00 0.00 61 1013.1
20260506024033 66 96 0.0 0.0 0.00 0.00 0.00 60 1013.2
20260506023532 66 96 0.0 0.0 0.00 0.00 0.00 59 1013.1
20260506023033 67 96 0.0 0.0 0.00 0.00 0.00 58 1013.1
20260506022633 67 96 0.0 0.0 0.00 0.00 0.00 58 1013.1
20260506022029 67 96 0.0 0.0 0.00 0.00 0.00 58 1013.0
20260506021531 67 96 0.0 0.0 0.00 0.00 0.00 58 1013.0
20260506021031 66 96 0.0 0.0 0.00 0.00 0.00 59 1013.1
20260506020529 67 96 0.0 0.0 0.00 0.00 0.00 59 1013.0
20260506020028 67 96 0.0 0.0 0.00 0.00 0.00 59 1013.0
20260506015531 67 96 0.0 0.0 0.00 0.00 0.00 59 1013.1
20260506015029 67 96 0.0 0.0 0.00 0.00 0.00 58 1013.2
20260506014530 67 96 0.0 0.0 0.00 0.00 0.00 57 1013.2
20260506014030 68 96 0.0 0.0 0.00 0.00 0.00 57 1013.1
20260506013527 68 96 0.0 0.0 0.00 0.00 0.00 57 1013.1
20260506013027 68 96 0.0 0.0 0.00 0.00 0.00 56 1013.1
20260506012627 68 96 0.0 0.0 0.00 0.00 0.00 56 1013.0
20260506012026 68 96 0.0 0.0 0.00 0.00 0.00 55 1013.0
20260506011527 69 96 0.0 0.0 0.00 0.00 0.00 55 1013.1
20260506011027 69 96 0.0 0.0 0.00 0.00 0.00 54 1013.0
20260506010526 69 96 0.0 2.0 0.00 0.00 0.00 53 1013.0
20260506010025 69 96 0.0 3.0 0.00 0.00 0.00 53 1012.9
20260506005524 70 96 1.0 3.0 0.00 0.00 0.00 52 1012.9
20260506005022 70 96 0.0 3.0 0.00 0.00 0.00 52 1012.8
20260506004523 70 96 1.0 3.0 0.00 0.00 0.00 52 1012.9
20260506004023 70 96 1.0 4.0 0.00 0.00 0.00 51 1012.9
20260506003522 70 96 2.0 6.0 0.00 0.00 0.00 51 1012.9
20260506003023 71 96 3.0 6.0 0.00 0.00 0.00 51 1012.9
20260506002522 71 96 2.0 4.0 0.00 0.00 0.00 50 1013.0
20260506002024 71 96 1.0 8.0 0.00 0.00 0.00 50 1012.9
20260506001522 71 96 1.0 8.0 0.00 0.00 0.00 50 1012.8
20260506001022 72 96 3.0 10.0 0.00 0.00 0.00 49 1012.7
20260506000524 72 96 5.0 10.0 0.00 0.00 0.00 48 1012.8
20260506000021 72 96 1.0 10.0 0.00 0.00 0.00 48 1012.7
20260505235621 72 96 4.0 10.0 0.00 0.00 0.00 48 1012.6
20260505235023 72 96 5.0 10.0 0.00 0.00 0.00 47 1012.6
20260505234523 73 96 5.0 14.0 0.00 0.00 0.00 47 1012.6
20260505234025 73 96 9.0 14.0 0.00 0.00 0.00 47 1012.7
20260505233522 73 96 5.0 10.0 0.00 0.00 0.00 47 1012.7
20260505233022 73 96 5.0 10.0 0.00 0.00 0.00 47 1012.5
20260505232524 73 96 6.0 10.0 0.00 0.00 0.00 47 1012.7
20260505232029 73 96 5.0 13.0 0.00 0.00 0.00 47 1012.7
20260505231524 74 96 7.0 14.0 0.00 0.00 0.00 46 1012.7
20260505231022 74 96 8.0 14.0 0.00 0.00 0.00 46 1012.7
20260505230521 74 96 7.0 14.0 0.00 0.00 0.00 46 1012.6
20260505230022 74 96 5.0 15.0 0.00 0.00 0.00 46 1012.7
20260505225624 74 96 4.0 16.0 0.00 0.00 0.00 45 1012.6
20260505225023 74 96 8.0 16.0 0.00 0.00 0.00 45 1012.6
20260505224522 74 96 11.0 18.0 0.00 0.00 0.00 45 1012.6
20260505224023 74 96 7.0 18.0 0.00 0.00 0.00 45 1012.6
20260505223524 74 96 9.0 16.0 0.00 0.00 0.00 44 1012.6
20260505223027 74 96 6.0 17.0 0.00 0.00 0.00 45 1012.5
20260505222522 74 96 6.0 18.0 0.00 0.00 0.00 45 1012.6
20260505222021 73 96 7.0 18.0 0.00 0.00 0.00 45 1012.6
20260505221524 73 96 6.0 17.0 0.00 0.00 0.00 45 1012.9
20260505221022 74 96 9.0 17.0 0.00 0.00 0.00 44 1012.8
20260505220520 74 96 7.0 16.0 0.00 0.00 0.00 44 1012.8
20260505220020 74 96 8.0 18.0 0.00 0.00 0.00 44 1012.6
20260505215620 74 96 9.0 21.0 0.00 0.00 0.00 43 1012.6
20260505215019 74 96 11.0 21.0 0.00 0.00 0.00 42 1012.6
20260505214526 74 96 5.0 19.0 0.00 0.00 0.00 43 1012.6
20260505214019 74 96 6.0 17.0 0.00 0.00 0.00 43 1012.6
20260505213519 75 96 12.0 17.0 0.00 0.00 0.00 43 1012.7
20260505213019 74 96 7.0 16.0 0.00 0.00 0.00 43 1012.6
20260505212519 74 96 11.0 20.0 0.00 0.00 0.00 42 1012.5
20260505212017 74 96 13.0 20.0 0.00 0.00 0.00 42 1012.6
20260505211516 74 96 9.0 17.0 0.00 0.00 0.00 42 1012.7
20260505211016 74 96 8.0 16.0 0.00 0.00 0.00 41 1012.8
20260505210515 74 96 9.0 14.0 0.00 0.00 0.00 41 1012.9
20260505210015 74 96 8.0 19.0 0.00 0.00 0.00 41 1012.9
20260505205615 74 96 10.0 20.0 0.00 0.00 0.00 40 1013.0
20260505205017 74 96 8.0 20.0 0.00 0.00 0.00 40 1013.0
20260505204517 75 96 11.0 18.0 0.00 0.00 0.00 39 1013.0
20260505204015 75 96 7.0 19.0 0.00 0.00 0.00 41 1012.9
20260505203520 74 95 11.0 25.0 0.00 0.00 0.00 40 1012.9
20260505203015 75 96 12.0 20.0 0.00 0.00 0.00 40 1013.0
20260505202515 74 96 15.0 20.0 0.00 0.00 0.00 41 1013.1
20260505202015 75 96 11.0 25.0 0.00 0.00 0.00 40 1013.1
20260505201515 75 95 13.0 25.0 0.00 0.00 0.00 42 1013.1
20260505201014 75 95 10.0 22.0 0.00 0.00 0.00 43 1013.0
20260505200513 75 95 11.0 22.0 0.00 0.00 0.00 43 1013.0
20260505200012 75 96 8.0 15.0 0.00 0.00 0.00 43 1013.2
20260505195612 74 96 9.0 19.0 0.00 0.00 0.00 42 1013.5
20260505195011 74 96 11.0 19.0 0.00 0.00 0.00 42 1013.5
20260505194510 74 96 8.0 22.0 0.00 0.00 0.00 41 1013.6
20260505194010 74 96 11.0 22.0 0.00 0.00 0.00 40 1013.7
20260505193513 74 96 13.0 22.0 0.00 0.00 0.00 41 1013.7
20260505193010 74 94 14.0 25.0 0.00 0.00 0.00 40 1013.6
20260505192516 74 95 15.0 25.0 0.00 0.00 0.00 39 1013.7
20260505192009 75 96 10.0 25.0 0.00 0.00 0.00 39 1013.7
20260505191509 75 94 14.0 27.0 0.00 0.00 0.00 37 1013.8
20260505191008 74 95 18.0 27.0 0.00 0.00 0.00 37 1013.9
20260505190507 75 95 14.0 21.0 0.00 0.00 0.00 38 1013.7
20260505190007 74 96 13.0 21.0 0.00 0.00 0.00 40 1013.9
20260505185606 74 95 12.0 25.0 0.00 0.00 0.00 40 1013.9
20260505185008 74 95 14.0 25.0 0.00 0.00 0.00 41 1014.0
20260505184509 74 95 13.0 20.0 0.00 0.00 0.00 39 1014.2
20260505184005 75 96 11.0 25.0 0.00 0.00 0.00 39 1014.2
20260505183506 74 95 15.0 26.0 0.00 0.00 0.00 40 1014.2
20260505183007 74 95 18.0 26.0 0.00 0.00 0.00 39 1014.3
20260505182507 74 96 11.0 22.0 0.00 0.00 0.00 41 1014.4
20260505182003 74 96 12.0 22.0 0.00 0.00 0.00 41 1014.3
20260505181503 74 96 12.0 22.0 0.00 0.00 0.00 41 1014.3
20260505181002 74 96 7.0 17.0 0.00 0.00 0.00 43 1014.4
20260505180501 74 95 8.0 23.0 0.00 0.00 0.00 42 1014.5
20260505180002 74 96 15.0 27.0 0.00 0.00 0.00 41 1014.8
20260505175601 73 96 13.0 27.0 0.00 0.00 0.00 42 1014.9
20260505175003 73 96 10.0 22.0 0.00 0.00 0.00 42 1014.8
20260505174505 73 94 14.0 21.0 0.00 0.00 0.00 42 1014.8
20260505174001 73 96 9.0 20.0 0.00 0.00 0.00 41 1014.9
20260505173504 73 96 14.0 20.0 0.00 0.00 0.00 42 1014.9
20260505173100 73 96 12.0 20.0 0.00 0.00 0.00 45 1014.9
20260505172600 72 96 7.0 17.0 0.00 0.00 0.00 46 1015.0
20260505172102 72 96 10.0 18.0 0.00 0.00 0.00 47 1015.0
20260505171559 73 96 12.0 18.0 0.00 0.00 0.00 47 1015.0
20260505171102 73 96 8.0 19.0 0.00 0.00 0.00 47 1015.1
20260505170558 73 96 7.0 16.0 0.00 0.00 0.00 47 1015.0
20260505170057 72 96 6.0 17.0 0.00 0.00 0.00 49 1015.0
20260505165557 72 96 9.0 16.0 0.00 0.00 0.00 49 1015.0
20260505165057 72 96 10.0 16.0 0.00 0.00 0.00 49 1015.1
20260505164604 71 96 7.0 17.0 0.00 0.00 0.00 52 1015.0
20260505164055 71 96 10.0 17.0 0.00 0.00 0.00 51 1015.2
20260505163554 71 96 6.0 14.0 0.00 0.00 0.00 53 1015.3
20260505163053 70 96 9.0 18.0 0.00 0.00 0.00 53 1015.3
20260505162553 70 96 9.0 18.0 0.00 0.00 0.00 54 1015.2
20260505162052 70 96 9.0 16.0 0.00 0.00 0.00 54 1015.4
20260505161602 70 96 7.0 17.0 0.00 0.00 0.00 54 1015.4
20260505161052 69 96 10.0 17.0 0.00 0.00 0.00 53 1015.5
20260505160552 70 96 12.0 16.0 0.00 0.00 0.00 51 1015.4
20260505153049 69 96 6.0 13.0 0.00 0.00 0.00 55 1015.8
20260505152546 68 96 9.0 13.0 0.00 0.00 0.00 55 1016.0
20260505152045 68 96 7.0 16.0 0.00 0.00 0.00 56 1016.0
20260505151543 68 96 11.0 16.0 0.00 0.00 0.00 55 1015.8
20260505151042 68 96 6.0 13.0 0.00 0.00 0.00 57 1015.9
20260505150541 67 96 7.0 16.0 0.00 0.00 0.00 57 1015.8
20260505140534 65 96 2.0 7.0 0.00 0.00 0.00 59 1015.8